Kivalina, AK

11:42 AM AKST on February 26, 2017 (GMT -0900)
Kivalina

Weather History for PAVL - September, 2013

Change the Weather History Date:

Thursday, September 19, 2013

  Actual Average (PAWN) Record (PAWN)
Temperature  
Mean Temperature 31 °F -  
Max Temperature 39 °F 42 °F 71 °F (2007)
Min Temperature 23 °F 27 °F 19 °F (2000)
Degree Days  
Heating Degree Days 34    
Moisture  
Dew Point 22 °F    
Average Humidity 70    
Maximum Humidity 85    
Minimum Humidity 49    
Precipitation  
Precipitation 0.00 in - - ()
Sea Level Pressure  
Sea Level Pressure 29.77 in    
Wind  
Wind Speed 14 mph (NNE)    
Max Wind Speed 21 mph    
Max Gust Speed -    
Visibility 10 miles    
Events      
Averages and records for this station are not official NWS values.
T = Trace of Precipitation, MM = Missing Value Source: NWS Daily Summary

Daily Weather History Graph

Daily Weather History Graph

Search for Another Location

Airport or City:

Trip Planner

Search our weather history database for the weather conditions in past years. The results will help you decide how hot, cold, wet, or windy it might be!

Date:

Astronomy

Sep. 19, 2013 Rise Set
Actual Time 8:31 AM AKDT 9:10 PM AKDT
Civil Twilight 7:35 AM AKDT 10:06 PM AKDT
Nautical Twilight 6:23 AM AKDT 11:16 PM AKDT
Astronomical Twilight 4:49 AM AKDT 12:47 AM AKDT
Moon 8:32 PM AKDT (9/19) 9:25 AM AKDT (9/19)
Length of Visible Light 14h 31m
Length of Day
12h 39m
Full, 100% of the Moon is Illuminated
Sep 19
Full
Sep 26
Last Quarter
Oct 4
New
Oct 11
First Quarter
Oct 18
Full

Hourly Weather History & Observations

Time (AKDT) Temp. Windchill Dew Point Humidity Pressure Visibility Wind Dir Wind Speed Gust Speed Precip Events Conditions
12:53 AM 27.0 °F 14.3 °F 19.9 °F 75% 29.84 in 10.0 mi NNE 17.3 mph - N/A   Clear
1:53 AM 26.1 °F 12.3 °F 21.0 °F 81% 29.83 in 10.0 mi NNE 19.6 mph - N/A   Clear
2:53 AM 25.0 °F 10.9 °F 19.0 °F 78% 29.82 in 10.0 mi NNE 19.6 mph - N/A   Clear
3:53 AM 25.0 °F 12.2 °F 19.9 °F 81% 29.82 in 10.0 mi NNE 16.1 mph - N/A   Clear
4:53 AM 26.1 °F 12.0 °F 21.0 °F 81% 29.81 in 10.0 mi NNE 20.7 mph - N/A   Clear
5:53 AM 25.0 °F 11.3 °F 19.9 °F 81% 29.81 in 10.0 mi NNE 18.4 mph - N/A   Clear
6:53 AM 24.1 °F 11.0 °F 19.0 °F 81% 29.80 in 10.0 mi NNE 16.1 mph - N/A   Clear
7:53 AM 23.0 °F 11.1 °F 19.0 °F 85% 29.81 in 10.0 mi NNE 12.7 mph - N/A   Clear
8:53 AM 23.0 °F 11.7 °F 19.0 °F 85% 29.80 in 10.0 mi NNE 11.5 mph - N/A   Clear
9:53 AM 25.0 °F 13.1 °F 19.9 °F 81% 29.80 in 10.0 mi NNE 13.8 mph - N/A   Clear
10:53 AM 28.0 °F 16.1 °F 21.9 °F 78% 29.80 in 10.0 mi North 16.1 mph - N/A   Clear
11:53 AM 32.0 °F 22.1 °F 23.0 °F 69% 29.79 in 10.0 mi North 13.8 mph - N/A   Clear
12:53 PM 34.0 °F 25.5 °F 21.9 °F 61% 29.78 in 10.0 mi NNE 11.5 mph - N/A   Clear
1:53 PM 35.1 °F 28.6 °F 21.0 °F 57% 29.77 in 10.0 mi ENE 8.1 mph - N/A   Clear
2:53 PM 37.0 °F - 19.9 °F 50% 29.76 in 10.0 mi Calm Calm - N/A   Clear
3:53 PM 37.9 °F 32.7 °F 21.9 °F 53% 29.75 in 10.0 mi North 6.9 mph - N/A   Clear
4:53 PM 39.0 °F 35.7 °F 21.0 °F 49% 29.73 in 10.0 mi South 4.6 mph - N/A   Clear
5:53 PM 39.0 °F 35.7 °F 21.9 °F 50% 29.73 in 10.0 mi WSW 4.6 mph - N/A   Scattered Clouds
6:53 PM 39.0 °F 36.8 °F 23.0 °F 53% 29.71 in 10.0 mi WSW 3.5 mph - N/A   Partly Cloudy
7:53 PM 37.0 °F - 23.0 °F 57% 29.70 in 10.0 mi Calm Calm - N/A   Mostly Cloudy
8:53 PM 35.1 °F 27.4 °F 25.0 °F 67% 29.69 in 10.0 mi North 10.4 mph - N/A   Scattered Clouds
9:53 PM 34.0 °F 25.0 °F 26.1 °F 73% 29.69 in 10.0 mi NE 12.7 mph - N/A   Overcast
10:53 PM 30.0 °F 21.1 °F 25.0 °F 82% 29.68 in 10.0 mi NNE 10.4 mph - N/A   Mostly Cloudy
11:53 PM 28.9 °F 20.4 °F 24.1 °F 82% 29.67 in 10.0 mi NNE 9.2 mph - N/A   Clear